This is the latest recevied weather packets stored in our database for station/object K1ABC. If no packets are shown the sender has not sent any weather packets the latest 10 day(s).
| Time | Temp. | Humidity | Pressure | Rain* | Wind** | Luminosity | Snow |
|---|---|---|---|---|---|---|---|
| 1777941531 | 18.33° C | 40% | 1007.2 hPa | 0 mm | - | - | - |
| 1777940643 | 18.33° C | 40% | 1006.8 hPa | 0 mm | - | - | - |
| 1777940275 | 18.89° C | 40% | 1006.6 hPa | 0 mm | - | - | - |
| 1777940146 | 18.89° C | 39% | 1006.6 hPa | 0 mm | - | - | - |
| 1777939900 | 18.89° C | 39% | 1006.5 hPa | 0 mm | - | - | - |
| 1777937663 | 20.56° C | 35% | 1006.1 hPa | 0 mm | - | - | - |
| 1777935761 | 21.11° C | 32% | 1005.7 hPa | 0 mm | - | - | - |
| 1777935253 | 21.67° C | 32% | 1005.6 hPa | 0 mm | - | - | - |
| 1777934051 | 21.67° C | 32% | 1005.4 hPa | 0 mm | - | - | - |
| 1777933105 | 21.67° C | 32% | 1005.3 hPa | 0 mm | - | - | - |
| 1777932790 | 21.67° C | 31% | 1005.4 hPa | 0 mm | - | - | - |
| 1777932661 | 21.67° C | 31% | 1005.4 hPa | 0 mm | - | - | - |
| 1777931635 | 21.67° C | 31% | 1005.4 hPa | 0 mm | - | - | - |
| 1777931154 | 22.22° C | 32% | 1005.2 hPa | 0 mm | - | - | - |
| 1777930667 | 22.22° C | 30% | 1005.3 hPa | 0 mm | - | - | - |
| 1777928866 | 23.33° C | 29% | 1005.4 hPa | 0 mm | - | - | - |
| 1777928616 | 23.33° C | 30% | 1005.3 hPa | 0 mm | - | - | - |
| 1777924715 | 23.33° C | 29% | 1005.3 hPa | 0 mm | - | - | - |
| 1777924082 | 23.33° C | 28% | 1005.4 hPa | 0 mm | - | - | - |
| 1777922816 | 22.78° C | 30% | 1005.4 hPa | 0 mm | - | - | - |
| 1777921667 | 22.22° C | 30% | 1005.6 hPa | 0 mm | - | - | - |
| 1777920897 | 21.67° C | 28% | 1005.7 hPa | 0 mm | - | - | - |
| 1777919998 | 21.67° C | 29% | 1005.8 hPa | 0 mm | - | - | - |
| 1777918728 | 22.78° C | 27% | 1006 hPa | 0 mm | - | - | - |
| 1777918607 | 22.78° C | 29% | 1005.9 hPa | 0 mm | - | - | - |
* Rain latest hour (hover to see other rain measurements)
** Current wind speed in m/s (hover to see current wind gust speed)